Location: Doschendorf
(50.0069°N, 11.0602°E)
Time: 02:39:10
(UTC+00:00)

CENTAUR R/B - Pass Details

Date: 17 November 2019
Orbit: 779 x 1409 km, 63.4° (Epoch: 01 December)

Event Time Altitude Azimuth Distance (km) Brightness Sun altitude
Rises 17:10:08 0° 300° (WNW) 3,860 6.4 -15.9°
Reaches altitude 10° 17:13:02 10° 311° (NW) 3,002 5.6 -16.4°
Maximum altitude 17:19:25 31° 13° (NNE) 2,009 3.9 -17.4°
Enters shadow 17:23:15 22° 55° (NE) 2,521 4.1 -18.0°
